User: anonymous   Login
Location: Unspecified
(0.0000°N, 0.0000°E)
Time: 03:39:37
(UTC+02:00)
Language:

Transit 2A - Orbit

View from above orbital plane
View from above orbital plane
View from above satellite
View from above satellite

Ground track
Ground track

The orbit data is extracted from the following two-line orbital elements,

1 00045U 60007A   15184.18027174 -.00000019  00000-0  22198-4 0  9998
2 00045 066.6948 113.2013 0258492 195.5052 163.8025 14.33363818863088
Epoch (UTC): 03 July 2015 04:19:35
Eccentricity: 0.0258492
inclination: 66.6948°
perigee height: 595 km
apogee height: 965 km
right ascension of ascending node: 113.2013°
argument of perigee: 195.5052°
revolutions per day: 14.33363818
mean anomaly at epoch: 163.8025°
orbit number at epoch: 86308

The dashed part of the orbit path shows where the satellite is in the earth's shadow,  

DLR